Location: Krakow
(50.0830°N, 19.9170°E)
Time: 17:50:43
(UTC+01:00)

SR - Pass Details

Date: 12 February 2023
Orbit: 582 x 867 km, 66.7° (Epoch: 20 March)

Event Time Altitude Azimuth Distance (km) Brightness Sun altitude
Rises 18:22:25 0° 326° (NW) 2,896 ? -14.8°
Reaches altitude 10° 18:25:23 10° 346° (NNW) 1,953 ? -15.3°
Maximum altitude 18:28:20 17° 29° (NNE) 1,499 ? -15.8°
Enters shadow 18:28:54 17° 39° (NE) 1,514 ? -15.9°
Drops below altitude 10° 18:31:14 10° 72° (ENE) 1,910 - -16.2°
Sets 18:34:06 0° 93° (E) 2,804 - -16.7°
